[[{"header":{"parameterUnit":"m.s-1","parameterCategory":1,"la1":30.2991,"la2":30.254,"lo1":-89.0895,"lo2":-89.0444,"dy":0.0017,"dx":0.0017,"nx":28,"ny":28,"refTime":"2025-08-12T21:00:00:Z","depth":0,"parameterNumber":2,"parameterNumberName":"U-component_of_WINDS"},"data":[0,0,0,0,0,0,0,0,0,0,0,0,0,0,0,0,0,0,0,0,0,0,0,0,0,0,0,0,0,0,0,0,0,0,0,0,0,0,0,0,0,0,0,0,0,0,0,0,0,0,0,0,0,0,0,0,0,0,1.4579,1.458,0,1.469,1.4692,1.4693,1.4745,1.4744,1.4744,1.4744,1.4864,1.4867,1.487,0,0,0,0,0,0,0,0,0,0,0,0,0,1.4416,1.4419,1.4579,1.458,1.4581,1.469,1.4692,1.4693,1.4745,1.4744,1.4744,1.4744,1.4862,1.4866,1.487,0,0,0,0,0,0,0,0,0,0,0,0,0,1.4503,1.442,1.4578,1.462,1.4625,1.469,1.4692,1.4694,1.4745,1.4744,1.4744,1.4744,1.4861,1.4866,1.4871,1.4904,0,0,1.4886,1.4888,0,0,0,0,0,0,0,0,1.4498,1.4509,1.4612,1.4617,1.4623,1.4703,1.4678,1.4764,1.4745,1.4699,1.4744,1.4744,1.4811,1.482,1.4841,1.491,1.4915,1.4886,1.4889,1.4891,1.4893,0,0,0,0,0,0,0,1.4492,1.4505,1.4623,1.4614,1.462,1.4635,1.4647,1.4695,1.4755,1.4703,1.4707,1.4719,1.4813,1.4836,1.4844,1.4917,1.4886,1.489,1.4893,1.4895,1.5022,1.5022,0,0,0,0,0,0,1.4479,1.4499,1.4619,1.4626,1.4559,1.4638,1.4652,1.4678,1.4754,1.4766,1.4719,1.4721,1.4828,1.4839,1.4849,1.4895,1.4891,1.4896,1.4899,1.5022,1.5022,1.5023,0,0,0,0,0,0,1.4475,1.4489,1.4615,1.4564,1.4581,1.4641,1.467,1.468,1.4703,1.4766,1.4778,1.4731,1.4828,1.4842,1.489,1.49,1.4898,1.4903,1.5021,1.5022,1.5022,1.4986,0,0,0,0,0,0,1.447,1.4487,1.4499,1.4564,1.4584,1.4652,1.467,1.4682,1.471,1.4714,1.4781,1.4792,1.4829,1.4883,1.4895,1.4906,1.4906,1.5021,1.5021,1.5022,1.4986,1.4985,1.4984,0,0,0,0,0,1.4464,1.4484,1.4499,1.4513,1.4599,1.4653,1.4664,1.4706,1.4711,1.4724,1.4766,1.4789,1.4896,1.4887,1.4902,1.4914,1.502,1.5021,1.5022,1.4987,1.4985,1.4984,0,0,0,0,0,0,1.442,1.4493,1.451,1.4552,1.4596,1.4661,1.4679,1.4702,1.4747,1.4748,1.48,1.4814,1.4859,1.4892,1.488,1.4953,1.4961,1.4965,1.4929,1.4928,1.4927,1.4918,1.491,0,0,0,0,0,1.4414,1.445,1.4514,1.4544,1.4565,1.4618,1.4643,1.4672,1.472,1.4739,1.4784,1.4831,1.4876,1.4904,1.4948,1.4992,1.5008,1.5008,1.5007,1.5005,1.5008,1.5036,1.5037,1.5026,1.5026,1.5026,0,0,1.4404,1.4449,1.4469,1.4537,1.4574,1.4612,1.4634,1.4672,1.4702,1.4745,1.4794,1.4829,1.4885,1.4932,1.4955,1.496,1.5015,1.5006,1.5005,1.5009,1.5037,1.5038,1.5039,1.5026,1.5026,1.5026,0,0,1.4406,1.4442,1.4473,1.451,1.4566,1.4601,1.4609,1.4672,1.4696,1.4745,1.478,1.4817,1.4892,1.4931,1.4961,1.498,1.5004,1.4993,1.4987,1.5014,1.5015,1.5016,1.5024,1.5026,1.4996,1.4996,1.4996,0,1.4387,1.4443,1.4486,1.4524,1.4554,1.4594,1.4627,1.4661,1.4729,1.475,1.4755,1.4852,1.4893,1.495,1.4955,1.4977,1.499,1.4986,1.5011,1.5012,1.5014,1.5023,1.5025,1.4994,1.4995,1.4995,1.4995,0,1.4418,1.4457,1.4476,1.4539,1.4572,1.4607,1.4657,1.4685,1.4711,1.4747,1.4799,1.4849,1.4905,1.4921,1.4948,1.4984,1.4986,1.5,1.501,1.5013,1.5022,1.5025,1.4992,1.4993,1.4993,1.4993,0,0,1.4393,1.4481,1.4488,1.4518,1.4584,1.4616,1.4654,1.4708,1.4732,1.4779,1.4813,1.4877,1.4891,1.4925,1.4957,1.498,1.4995,1.4992,1.4995,1.4992,1.504,1.5029,1.5032,1.5011,1.5012,1.5013,1.5036,0,1.4404,1.4472,1.4513,1.4566,1.4604,1.4645,1.4678,1.4724,1.4759,1.4798,1.4838,1.4883,1.4898,1.4919,1.4944,1.4987,1.5005,1.4986,1.5046,1.5048,1.5031,1.5037,1.5025,1.5044,1.504,1.504,1.5041,0,1.4426,1.4471,1.4526,1.459,1.4608,1.4637,1.4691,1.4728,1.4781,1.4806,1.4844,1.4876,1.4921,1.4927,1.4991,1.4977,1.5005,1.503,1.5032,1.5039,1.5044,1.5045,1.5051,1.5054,1.5047,1.5046,1.5046,0,1.4404,1.4478,1.4522,1.4547,1.4621,1.4642,1.4674,1.4727,1.4758,1.4806,1.4827,1.488,1.491,1.4951,1.4998,1.4998,1.5058,1.5067,1.5081,1.508,1.5092,1.5091,1.5103,1.5108,1.5108,1.5108,1.5108,0,1.4412,1.4445,1.4513,1.454,1.4579,1.4627,1.4666,1.4702,1.4749,1.4786,1.4825,1.4859,1.4918,1.496,1.4997,1.5045,1.5058,1.5081,1.509,1.5077,1.5074,1.5096,1.5096,1.5109,1.5109,1.5109,1.5109,0,1.4393,1.444,1.449,1.4558,1.4576,1.4602,1.466,1.469,1.4727,1.4773,1.4787,1.4847,1.4899,1.495,1.5019,1.5045,1.5093,1.5105,1.5074,1.508,1.5091,1.509,1.5118,1.5125,1.5125,1.5125,1.5125,0,1.4396,1.4422,1.4492,1.4519,1.455,1.4593,1.4624,1.4674,1.4706,1.477,1.4792,1.4847,1.4892,1.4974,1.5025,1.508,1.5094,1.51,1.5102,1.5089,1.5096,1.5094,1.5097,1.5099,1.5099,1.5098,1.5098,0,1.4396,1.4418,1.4461,1.4513,1.4549,1.4593,1.4638,1.4659,1.4718,1.4752,1.4804,1.484,1.4912,1.4966,1.5026,1.5063,1.5091,1.5097,1.5104,1.5091,1.5072,1.5084,1.5071,1.5096,1.5097,1.5097,1.5097,1.5097,1.4389,1.4415,1.4469,1.4516,1.4556,1.4597,1.4628,1.4671,1.4715,1.4776,1.4803,1.4857,1.4913,1.4997,1.5033,1.5078,1.5085,1.5093,1.5096,1.5097,1.5095,1.5065,1.5089,1.5089,1.5089,1.5089,1.5089,0,1.4391,1.4428,1.4472,1.4534,1.4572,1.4594,1.4646,1.4677,1.4723,1.4773,1.4817,1.4879,1.4933,1.4989,1.5046,1.5071,1.5086,1.5085,1.5084,1.5092,1.5085,1.5074,1.5072,1.5072,1.5072,1.5072,1.5072,1.5072,1.4397,1.4443,1.4472,1.4539,1.4577,1.4629,1.4657,1.4697,1.4736,1.4803,1.4848,1.4883,1.4937,1.4998,1.5049,1.5065,1.5085,1.508,1.5099,1.5091,1.5092,1.5093,1.5084,1.5084,1.5084,1.5103,1.5103,1.5103]},{"header":{"parameterUnit":"m.s-1","parameterCategory":1,"la1":30.2991,"la2":30.254,"lo1":-89.0895,"lo2":-89.0444,"dy":0.0017,"dx":0.0017,"nx":28,"ny":28,"refTime":"2025-08-12T21:00:00:Z","depth":0,"parameterNumber":3,"parameterNumberName":"V-component_of_WINDS"},"data":[0,0,0,0,0,0,0,0,0,0,0,0,0,0,0,0,0,0,0,0,0,0,0,0,0,0,0,0,0,0,0,0,0,0,0,0,0,0,0,0,0,0,0,0,0,0,0,0,0,0,0,0,0,0,0,0,0,0,1.059,1.059,0,1.0648,1.0649,1.0649,1.0674,1.0674,1.0674,1.0674,1.0731,1.0732,1.0734,0,0,0,0,0,0,0,0,0,0,0,0,0,1.0496,1.0497,1.059,1.059,1.0591,1.0648,1.0649,1.0649,1.0674,1.0674,1.0674,1.0674,1.073,1.0732,1.0734,0,0,0,0,0,0,0,0,0,0,0,0,0,1.0543,1.0498,1.059,1.0611,1.0613,1.0648,1.0649,1.065,1.0674,1.0674,1.0674,1.0674,1.0729,1.0732,1.0734,1.0751,0,0,1.0741,1.0742,0,0,0,0,0,0,0,0,1.0541,1.0547,1.0607,1.0609,1.0612,1.0654,1.0636,1.0684,1.0674,1.0651,1.0674,1.0674,1.0705,1.0709,1.072,1.0754,1.0756,1.0742,1.0743,1.0744,1.0745,0,0,0,0,0,0,0,1.0537,1.0544,1.0613,1.0608,1.0611,1.0615,1.0622,1.0645,1.0678,1.0653,1.0655,1.0662,1.0706,1.0718,1.0722,1.0757,1.0741,1.0744,1.0745,1.0746,1.0806,1.0806,0,0,0,0,0,0,1.0531,1.0541,1.0611,1.0614,1.0575,1.0617,1.0625,1.064,1.0678,1.0683,1.0662,1.0663,1.0714,1.0719,1.0724,1.0746,1.0744,1.0746,1.0748,1.0806,1.0806,1.0806,0,0,0,0,0,0,1.0529,1.0537,1.0608,1.0579,1.0588,1.0619,1.0636,1.0642,1.0654,1.0684,1.069,1.0668,1.0714,1.0721,1.0744,1.0748,1.0747,1.0749,1.0806,1.0806,1.0806,1.079,0,0,0,0,0,0,1.0526,1.0536,1.0544,1.0579,1.059,1.0629,1.0637,1.0643,1.0658,1.066,1.0692,1.0697,1.0715,1.074,1.0746,1.0751,1.0751,1.0805,1.0806,1.0806,1.079,1.079,1.0789,0,0,0,0,0,1.0523,1.0537,1.0545,1.0553,1.06,1.0629,1.0635,1.0656,1.0658,1.0666,1.0685,1.0696,1.0747,1.0743,1.075,1.0755,1.0805,1.0806,1.0806,1.0791,1.079,1.0789,0,0,0,0,0,0,1.0502,1.0542,1.0551,1.0577,1.06,1.0633,1.0644,1.0655,1.0677,1.0677,1.0701,1.0708,1.0729,1.0745,1.074,1.0773,1.0777,1.0778,1.0763,1.0762,1.0761,1.0757,1.0753,0,0,0,0,0,1.05,1.0521,1.0555,1.0575,1.0586,1.0613,1.0626,1.064,1.0664,1.0673,1.0695,1.0716,1.0737,1.075,1.0771,1.0792,1.0799,1.0799,1.0799,1.0798,1.08,1.081,1.0811,1.0807,1.0807,1.0807,0,0,1.0497,1.0522,1.0534,1.0571,1.059,1.061,1.0621,1.0642,1.0656,1.0676,1.07,1.0716,1.0742,1.0764,1.0775,1.0777,1.0802,1.0799,1.0798,1.08,1.0811,1.0811,1.0811,1.0808,1.0808,1.0808,0,0,1.0502,1.0523,1.0541,1.056,1.0589,1.0607,1.0611,1.0643,1.0655,1.0679,1.0694,1.0711,1.0747,1.0764,1.0777,1.0787,1.0797,1.0793,1.079,1.08,1.08,1.0801,1.0803,1.0804,1.0794,1.0794,1.0794,0,1.0494,1.0526,1.0549,1.0569,1.0584,1.0604,1.0622,1.0638,1.0672,1.0682,1.0684,1.0728,1.0747,1.0773,1.0775,1.0785,1.079,1.0789,1.0799,1.0799,1.08,1.0802,1.0803,1.0793,1.0793,1.0793,1.0793,0,1.0515,1.0537,1.0548,1.0581,1.0597,1.0616,1.064,1.0653,1.0665,1.0682,1.0705,1.0728,1.0753,1.076,1.0772,1.0787,1.0788,1.0794,1.0798,1.0799,1.0802,1.0803,1.0792,1.0792,1.0792,1.0793,0,0,1.0509,1.0554,1.0557,1.0572,1.0605,1.0621,1.064,1.0665,1.0676,1.0698,1.0713,1.0742,1.0748,1.0763,1.0776,1.0785,1.079,1.079,1.0791,1.0789,1.0807,1.0802,1.0803,1.0797,1.0797,1.0797,1.0804,0,1.0518,1.0554,1.0574,1.0601,1.062,1.0638,1.0654,1.0675,1.069,1.0708,1.0725,1.0745,1.0751,1.076,1.077,1.0787,1.0794,1.0787,1.081,1.0811,1.0803,1.0805,1.08,1.0806,1.0806,1.0806,1.0806,0,1.0534,1.0556,1.0585,1.0614,1.0623,1.0637,1.0662,1.0679,1.0702,1.0712,1.0728,1.0742,1.076,1.0763,1.0788,1.0783,1.0793,1.0803,1.0803,1.0807,1.0809,1.0807,1.0808,1.0809,1.0808,1.0808,1.0808,0,1.0526,1.0563,1.0585,1.0597,1.0632,1.0641,1.0656,1.0679,1.0692,1.0713,1.0722,1.0743,1.0755,1.0771,1.079,1.079,1.0812,1.0816,1.0821,1.082,1.0825,1.0825,1.0827,1.0832,1.0832,1.0832,1.0832,0,1.0533,1.055,1.0582,1.0595,1.0614,1.0636,1.0653,1.0669,1.0689,1.0705,1.0721,1.0735,1.0758,1.0774,1.0789,1.0807,1.0812,1.082,1.0824,1.0819,1.0818,1.0826,1.0826,1.0832,1.0832,1.0832,1.0832,0,1.0528,1.055,1.0575,1.0606,1.0614,1.0626,1.0652,1.0664,1.068,1.07,1.0705,1.073,1.075,1.077,1.0796,1.0806,1.0823,1.0828,1.0816,1.0818,1.0821,1.082,1.0829,1.0831,1.0834,1.0834,1.0834,0,1.0532,1.0545,1.0577,1.059,1.0604,1.0623,1.0637,1.0658,1.0672,1.0698,1.0708,1.0729,1.0747,1.0778,1.0797,1.0817,1.0822,1.0824,1.0826,1.082,1.0822,1.0821,1.0822,1.0824,1.0823,1.0823,1.0823,0,1.0536,1.0546,1.0566,1.0589,1.0606,1.0625,1.0644,1.0653,1.0677,1.0691,1.0713,1.0727,1.0754,1.0774,1.0796,1.081,1.082,1.0823,1.0825,1.082,1.0812,1.0816,1.0814,1.0822,1.0822,1.0823,1.0823,1.0823,1.0535,1.0547,1.0572,1.0593,1.061,1.0628,1.0641,1.0658,1.0677,1.0701,1.0712,1.0733,1.0754,1.0784,1.0798,1.0813,1.0816,1.0819,1.082,1.082,1.0819,1.0809,1.0817,1.0817,1.0817,1.0817,1.0817,0,1.0539,1.0555,1.0575,1.0602,1.0618,1.0628,1.0649,1.0662,1.068,1.07,1.0717,1.074,1.076,1.078,1.08,1.0809,1.0814,1.0813,1.0813,1.0816,1.0815,1.0811,1.0809,1.0809,1.0809,1.0809,1.0809,1.0809,1.0543,1.0565,1.0577,1.0606,1.0622,1.0643,1.0655,1.067,1.0686,1.0711,1.0728,1.0741,1.076,1.0782,1.08,1.0805,1.0811,1.0809,1.0816,1.0815,1.0816,1.0816,1.0813,1.0811,1.0811,1.0815,1.0815,1.0815]}]]